EW1296 Weather Reports


time (UTC)temp
C
wind
direction
speed
KPH
gust
KPH
rain 1hr
cm
rain 24hr
cm
rain mn
cm
humidity
%
barometer
mb
20260506035516 19 225 8.0 24.1 0.00 0.00 0.00 67 1010.6
20260506035017 19 225 9.7 19.3 0.00 0.00 0.00 66 1010.7
20260506034556 20 225 11.3 20.9 0.00 0.00 0.00 66 1010.8
20260506034016 20 225 11.3 20.9 0.00 0.00 0.00 66 1010.8
20260506033516 20 225 9.7 19.3 0.00 0.00 0.00 65 1010.6
20260506033016 20 225 11.3 25.7 0.00 0.00 0.00 65 1010.6
20260506032516 20 225 12.9 27.4 0.00 0.00 0.00 64 1010.7
20260506032016 20 225 11.3 27.4 0.00 0.00 0.00 64 1010.6
20260506031516 20 225 9.7 20.9 0.00 0.00 0.00 64 1010.5
20260506031017 20 225 12.9 33.8 0.00 0.00 0.00 64 1010.5
20260506030557 20 225 4.8 16.1 0.00 0.00 0.00 64 1010.5
20260506030017 20 225 6.4 16.1 0.00 0.00 0.00 64 1010.6
20260506025536 20 225 9.7 19.3 0.00 0.00 0.00 64 1010.5
20260506025016 19 248 9.7 22.5 0.00 0.00 0.00 64 1010.5
20260506024516 19 225 6.4 19.3 0.00 0.00 0.00 64 1010.5
20260506024017 19 225 6.4 17.7 0.00 0.00 0.00 64 1010.5
20260506023516 19 225 6.4 20.9 0.00 0.00 0.00 65 1010.5
20260506023016 19 225 6.4 17.7 0.00 0.00 0.00 65 1010.6
20260506022517 19 203 4.8 14.5 0.00 0.00 0.00 65 1010.6
20260506022017 19 225 6.4 16.1 0.00 0.00 0.00 65 1010.6
20260506021516 19 203 8.0 19.3 0.00 0.00 0.00 65 1010.6
20260506021036 19 203 6.4 19.3 0.00 0.00 0.00 65 1010.5
20260506020558 19 225 3.2 9.7 0.00 0.00 0.00 65 1010.5
20260506020017 19 180 3.2 11.3 0.00 0.00 0.00 64 1010.5
20260506015536 20 203 3.2 12.9 0.00 0.00 0.00 64 1010.5
20260506015016 20 225 8.0 19.3 0.00 0.00 0.00 64 1010.5
20260506014516 19 180 6.4 16.1 0.00 0.00 0.00 64 1010.6
20260506014016 19 203 6.4 24.1 0.00 0.00 0.00 64 1010.4
20260506013517 19 225 6.4 19.3 0.00 0.00 0.00 64 1010.4
20260506013016 19 203 6.4 16.1 0.00 0.00 0.00 63 1010.4
20260506012517 20 225 4.8 16.1 0.00 0.00 0.00 63 1010.3
20260506012016 20 203 3.2 11.3 0.00 0.00 0.00 62 1010.3
20260506011516 20 203 1.6 6.4 0.00 0.00 0.00 62 1010.3
20260506011016 20 225 3.2 12.9 0.00 0.00 0.00 62 1010.2
20260506010516 20 225 3.2 12.9 0.00 0.00 0.00 61 1010.1
20260506010016 20 225 3.2 9.7 0.00 0.00 0.00 61 1010.1
20260506005516 20 203 4.8 12.9 0.00 0.00 0.00 60 1010.0
20260506005016 20 225 3.2 14.5 0.00 0.00 0.00 60 1009.9
20260506004516 20 203 4.8 11.3 0.00 0.00 0.00 60 1009.9
20260506004037 20 203 4.8 12.9 0.00 0.00 0.00 60 1009.8
20260506003516 20 203 6.4 16.1 0.00 0.00 0.00 60 1009.8
20260506003017 20 225 3.2 11.3 0.00 0.00 0.00 60 1009.7
20260506002516 20 225 3.2 11.3 0.00 0.00 0.00 60 1009.5
20260506002016 20 225 1.6 6.4 0.00 0.00 0.00 60 1009.5
20260506001516 20 203 4.8 14.5 0.00 0.00 0.00 59 1009.5
20260506001016 20 203 1.6 14.5 0.00 0.00 0.00 60 1009.5
20260506000517 20 180 1.6 11.3 0.00 0.00 0.00 60 1009.4
20260506000017 20 158 1.6 8.0 0.00 0.00 0.00 60 1009.4
20260505235516 20 180 1.6 6.4 0.00 0.00 0.00 60 1009.3
20260505235016 20 203 3.2 11.3 0.00 0.00 0.00 59 1009.3
20260505234517 21 225 3.2 14.5 0.00 0.00 0.00 58 1009.1
20260505234016 21 225 4.8 12.9 0.00 0.00 0.00 57 1009.1
20260505233538 21 225 4.8 12.9 0.00 0.00 0.00 58 1009.0
20260505233016 21 203 3.2 11.3 0.00 0.00 0.00 58 1008.9
20260505232536 21 225 3.2 6.4 0.00 0.00 0.00 58 1008.7
20260505232016 21 225 4.8 11.3 0.00 0.00 0.00 59 1008.6
20260505231636 21 203 4.8 11.3 0.00 0.00 0.00 59 1008.7
20260505231017 21 248 3.2 8.0 0.00 0.00 0.00 58 1008.6
20260505230515 21 248 4.8 11.3 0.00 0.00 0.00 57 1008.5
20260505230017 21 225 1.6 4.8 0.00 0.00 0.00 57 1008.5
20260505225516 22 225 1.6 11.3 0.00 0.00 0.00 55 1008.5
20260505225016 22 158 1.6 11.3 0.00 0.00 0.00 54 1008.6
20260505224516 23 135 3.2 9.7 0.00 0.00 0.00 53 1008.5
20260505224017 23 135 3.2 9.7 0.00 0.00 0.00 51 1008.4
20260505223517 24 135 1.6 12.9 0.00 0.00 0.00 50 1008.4
20260505223036 25 158 4.8 16.1 0.00 0.00 0.00 48 1008.3
20260505222536 25 225 3.2 8.0 0.00 0.00 0.00 46 1008.3
20260505222016 25 180 3.2 11.3 0.00 0.00 0.00 44 1008.2
20260505221516 26 158 3.2 9.7 0.00 0.00 0.00 43 1008.1
20260505221016 26 225 9.7 32.2 0.00 0.00 0.00 40 1008.0
20260505220517 26 225 9.7 22.5 0.00 0.00 0.00 37 1008.0
20260505220016 26 225 14.5 30.6 0.00 0.00 0.00 37 1008.0
20260505215517 26 203 12.9 33.8 0.00 0.00 0.00 37 1007.9
20260505215016 26 225 11.3 24.1 0.00 0.00 0.00 37 1007.9
20260505214537 27 203 11.3 27.4 0.00 0.00 0.00 37 1007.9
20260505214016 26 203 11.3 29.0 0.00 0.00 0.00 37 1007.9
20260505213538 26 158 3.2 20.9 0.00 0.00 0.00 39 1008.0
20260505213037 27 158 4.8 14.5 0.00 0.00 0.00 39 1007.9
20260505212516 27 225 8.0 20.9 0.00 0.00 0.00 35 1007.9
20260505212017 27 225 14.5 32.2 0.00 0.00 0.00 34 1007.8
20260505211536 27 248 11.3 27.4 0.00 0.00 0.00 34 1007.7
20260505211017 28 225 9.7 20.9 0.00 0.00 0.00 34 1007.6
20260505210536 28 225 14.5 29.0 0.00 0.00 0.00 33 1007.6
20260505210016 28 225 11.3 27.4 0.00 0.00 0.00 32 1007.6
20260505205517 28 225 11.3 25.7 0.00 0.00 0.00 32 1007.6
20260505205017 28 225 16.1 27.4 0.00 0.00 0.00 32 1007.6
20260505204516 28 225 11.3 27.4 0.00 0.00 0.00 34 1007.6
20260505204016 28 225 11.3 22.5 0.00 0.00 0.00 34 1007.7
20260505203516 28 180 4.8 20.9 0.00 0.00 0.00 35 1007.7
20260505203037 28 225 8.0 20.9 0.00 0.00 0.00 35 1007.7
20260505202516 28 225 12.9 29.0 0.00 0.00 0.00 31 1007.6
20260505202016 27 225 17.7 33.8 0.00 0.00 0.00 32 1007.7
20260505201516 27 225 16.1 38.6 0.00 0.00 0.00 34 1007.8
20260505201017 26 225 3.2 14.5 0.00 0.00 0.00 39 1007.9
20260505200515 26 158 3.2 14.5 0.00 0.00 0.00 41 1007.9
20260505200016 26 180 3.2 12.9 0.00 0.00 0.00 44 1008.0
20260505195537 26 113 4.8 12.9 0.00 0.00 0.00 45 1008.1
20260505195016 26 135 1.6 9.7 0.00 0.00 0.00 45 1008.1
20260505194516 26 135 4.8 16.1 0.00 0.00 0.00 45 1008.2
20260505194016 26 135 3.2 11.3 0.00 0.00 0.00 46 1008.2
20260505193515 25 113 4.8 12.9 0.00 0.00 0.00 47 1008.3
20260505193015 25 135 3.2 8.0 0.00 0.00 0.00 48 1008.4
20260505192516 25 135 3.2 9.7 0.00 0.00 0.00 48 1008.6
20260505192016 25 135 3.2 8.0 0.00 0.00 0.00 48 1008.6
20260505191516 25 113 6.4 16.1 0.00 0.00 0.00 47 1008.7
20260505191035 25 135 4.8 11.3 0.00 0.00 0.00 46 1008.7
20260505190516 25 135 3.2 12.9 0.00 0.00 0.00 48 1008.9
20260505190015 25 135 3.2 11.3 0.00 0.00 0.00 49 1009.1
20260505185515 25 135 6.4 14.5 0.00 0.00 0.00 50 1009.2
20260505185017 24 135 6.4 12.9 0.00 0.00 0.00 49 1009.3
20260505184515 24 135 6.4 17.7 0.00 0.00 0.00 50 1009.3
20260505184017 24 113 6.4 14.5 0.00 0.00 0.00 49 1009.3
20260505183515 25 113 8.0 17.7 0.00 0.00 0.00 49 1009.4
20260505183016 25 113 6.4 16.1 0.00 0.00 0.00 48 1009.5
20260505182516 25 135 4.8 12.9 0.00 0.00 0.00 48 1009.6
20260505182017 25 135 6.4 14.5 0.00 0.00 0.00 49 1009.6
20260505181535 24 113 6.4 14.5 0.00 0.00 0.00 49 1009.5
20260505181057 24 113 6.4 16.1 0.00 0.00 0.00 49 1009.6
20260505180515 25 135 6.4 14.5 0.00 0.00 0.00 48 1009.7
20260505180015 25 113 6.4 16.1 0.00 0.00 0.00 47 1009.7
20260505175537 25 135 6.4 16.1 0.00 0.00 0.00 47 1009.8
20260505175017 25 135 8.0 16.1 0.00 0.00 0.00 46 1009.7
20260505174515 25 113 4.8 12.9 0.00 0.00 0.00 46 1009.7
20260505174036 25 135 4.8 12.9 0.00 0.00 0.00 46 1009.8
20260505173515 25 135 6.4 16.1 0.00 0.00 0.00 47 1009.9
20260505173015 25 113 8.0 14.5 0.00 0.00 0.00 46 1009.9
20260505172515 25 135 6.4 16.1 0.00 0.00 0.00 46 1009.9
20260505172015 25 113 6.4 14.5 0.00 0.00 0.00 46 1009.9
20260505171515 25 113 8.0 19.3 0.00 0.00 0.00 45 1010.0
20260505171015 26 113 8.0 17.7 0.00 0.00 0.00 45 1010.0
20260505170516 25 113 6.4 11.3 0.00 0.00 0.00 46 1010.0
20260505170015 25 113 8.0 16.1 0.00 0.00 0.00 45 1010.1
20260505165517 25 113 8.0 14.5 0.00 0.00 0.00 45 1010.2
20260505165016 26 113 8.0 16.1 0.00 0.00 0.00 44 1010.2
20260505164519 26 135 6.4 16.1 0.00 0.00 0.00 44 1010.3
20260505164018 26 135 6.4 14.5 0.00 0.00 0.00 44 1010.4
20260505163518 26 113 4.8 12.9 0.00 0.00 0.00 44 1010.3
20260505163057 26 135 4.8 12.9 0.00 0.00 0.00 44 1010.4
20260505162517 26 135 4.8 12.9 0.00 0.00 0.00 44 1010.4
20260505162017 25 113 1.6 12.9 0.00 0.00 0.00 46 1010.6
20260505161517 25 135 4.8 11.3 0.00 0.00 0.00 46 1010.6
20260505161017 25 135 6.4 12.9 0.00 0.00 0.00 46 1010.6
20260505160517 25 113 4.8 14.5 0.00 0.00 0.00 47 1010.8
20260505153017 26 225 4.8 14.5 0.00 0.00 0.00 44 1011.0
20260505152517 25 135 1.6 4.8 0.00 0.00 0.00 44 1010.8
20260505152017 25 225 3.2 12.9 0.00 0.00 0.00 45 1011.0
20260505151517 25 203 3.2 8.0 0.00 0.00 0.00 46 1011.1
20260505151018 25 225 4.8 12.9 0.00 0.00 0.00 47 1011.3
20260505150518 25 248 3.2 12.9 0.00 0.00 0.00 47 1011.4
20260505140518 22 225 4.8 12.9 0.00 0.00 0.00 55 1011.7
20260505125017 19 225 6.4 19.3 0.00 0.00 0.00 65 1011.5
20260505124517 19 225 6.4 12.9 0.00 0.00 0.00 65 1011.4
20260505124017 19 225 4.8 14.5 0.00 0.00 0.00 65 1011.3
20260505123517 19 225 4.8 12.9 0.00 0.00 0.00 65 1011.3
20260505123038 19 225 4.8 12.9 0.00 0.00 0.00 65 1011.3
20260505122517 19 203 1.6 8.0 0.00 0.00 0.00 65 1011.3
20260505122017 19 225 3.2 9.7 0.00 0.00 0.00 65 1011.3
20260505121517 19 225 3.2 11.3 0.00 0.00 0.00 66 1011.3
20260505121039 19 0.0 3.2 0.00 0.00 0.00 67 1011.3
20260505120517 18 0.0 6.4 0.00 0.00 0.00 68 1011.2
20260505120037 18 225 1.6 8.0 0.00 0.00 0.00 69 1011.2
20260505115518 18 225 1.6 6.4 0.00 0.00 0.00 69 1011.2
20260505115038 18 0.0 3.2 0.00 0.00 0.00 70 1011.3
20260505114537 17 248 1.6 4.8 0.00 0.00 0.00 71 1011.3
20260505114017 17 0.0 3.2 0.00 0.00 0.00 71 1011.3
20260505113537 17 225 1.6 8.0 0.00 0.00 0.00 72 1011.4
20260505113017 16 225 3.2 8.0 0.00 0.00 0.00 72 1011.4
20260505112517 16 225 3.2 6.4 0.00 0.00 0.00 72 1011.4
20260505112018 16 203 3.2 6.4 0.00 0.00 0.00 72 1011.4
20260505111517 16 225 3.2 8.0 0.00 0.00 0.00 73 1011.4
20260505111017 16 225 1.6 6.4 0.00 0.00 0.00 73 1011.3
20260505110516 16 225 3.2 6.4 0.00 0.00 0.00 73 1011.4
20260505102017 15 270 3.2 9.7 0.00 0.00 0.00 78 1011.3
20260505101517 15 248 1.6 4.8 0.00 0.00 0.00 78 1011.2
20260505101017 15 248 3.2 6.4 0.00 0.00 0.00 78 1011.0
20260505100516 15 225 1.6 8.0 0.00 0.00 0.00 78 1010.7
20260505100017 15 225 4.8 8.0 0.00 0.00 0.00 78 1010.7
20260505095537 15 225 4.8 14.5 0.00 0.00 0.00 79 1010.6
20260505095017 14 225 4.8 11.3 0.00 0.00 0.00 79 1010.5
20260505094517 14 225 4.8 11.3 0.00 0.00 0.00 80 1010.4
20260505094017 14 225 4.8 12.9 0.00 0.00 0.00 80 1010.4
20260505093518 13 225 3.2 8.0 0.00 0.00 0.00 80 1010.2
20260505093018 13 225 3.2 9.7 0.00 0.00 0.00 81 1010.2
20260505092537 13 225 1.6 6.4 0.00 0.00 0.00 81 1010.3
20260505092017 13 0.0 1.6 0.00 0.00 0.00 80 1010.3
20260505091517 13 0.0 0.0 0.00 0.00 0.00 80 1010.3
20260505091017 13 0.0 0.0 0.00 0.00 0.00 80 1010.4
20260505090517 13 0.0 0.0 0.00 0.00 0.00 80 1010.4
20260505090016 13 0.0 0.0 0.00 0.00 0.00 80 1010.4
20260505085517 13 0.0 3.2 0.00 0.00 0.00 80 1010.5
20260505085017 13 0.0 1.6 0.00 0.00 0.00 80 1010.4
20260505084517 13 0.0 0.0 0.00 0.00 0.00 80 1010.3
20260505084017 13 0.0 0.0 0.00 0.00 0.00 80 1010.3
20260505083517 13 0.0 1.6 0.00 0.00 0.00 80 1010.4
20260505083037 13 0.0 1.6 0.00 0.00 0.00 80 1010.3
20260505082536 13 0.0 0.0 0.00 0.00 0.00 80 1010.3
20260505082016 13 0.0 1.6 0.00 0.00 0.00 79 1010.3
20260505081518 13 0.0 1.6 0.00 0.00 0.00 79 1010.3
20260505081016 13 0.0 0.0 0.00 0.00 0.00 79 1010.3
20260505080516 13 0.0 0.0 0.00 0.00 0.00 79 1010.4
20260505080038 13 0.0 0.0 0.00 0.00 0.00 79 1010.5
20260505075518 13 0.0 1.6 0.00 0.00 0.00 79 1010.4
20260505075036 13 0.0 3.2 0.00 0.00 0.00 79 1010.4
20260505074517 13 0.0 1.6 0.00 0.00 0.00 79 1010.3
20260505074017 13 0.0 0.0 0.00 0.00 0.00 79 1010.3
20260505073517 13 0.0 3.2 0.00 0.00 0.00 79 1010.2
20260505073018 13 0.0 0.0 0.00 0.00 0.00 78 1010.3
20260505072517 13 0.0 0.0 0.00 0.00 0.00 78 1010.2
20260505072018 13 0.0 0.0 0.00 0.00 0.00 78 1010.2
20260505071556 13 0.0 1.6 0.00 0.00 0.00 78 1010.2
20260505071037 13 0.0 1.6 0.00 0.00 0.00 78 1010.2
20260505070516 13 0.0 0.0 0.00 0.00 0.00 77 1010.2
20260505070036 13 0.0 1.6 0.00 0.00 0.00 77 1010.2
20260505065516 13 0.0 1.6 0.00 0.00 0.00 76 1010.3
20260505065016 13 0.0 0.0 0.00 0.00 0.00 76 1010.2
20260505064516 13 0.0 0.0 0.00 0.00 0.00 75 1010.1
20260505064016 13 0.0 1.6 0.00 0.00 0.00 75 1010.2
20260505063517 14 0.0 0.0 0.00 0.00 0.00 75 1010.2
20260505063017 14 0.0 1.6 0.00 0.00 0.00 74 1010.3
20260505062517 14 0.0 0.0 0.00 0.00 0.00 74 1010.3
20260505062016 14 0.0 1.6 0.00 0.00 0.00 74 1010.3
20260505061516 14 0.0 3.2 0.00 0.00 0.00 73 1010.2
20260505061037 15 158 1.6 3.2 0.00 0.00 0.00 73 1010.2
20260505060536 15 135 1.6 4.8 0.00 0.00 0.00 72 1010.3
20260505060016 15 135 1.6 4.8 0.00 0.00 0.00 71 1010.3
20260505055516 15 135 1.6 4.8 0.00 0.00 0.00 71 1010.3
20260505055036 15 0.0 4.8 0.00 0.00 0.00 71 1010.3
20260505054618 15 0.0 3.2 0.00 0.00 0.00 71 1010.3
20260505054016 15 0.0 3.2 0.00 0.00 0.00 71 1010.3
20260505053516 15 135 1.6 14.5 0.00 0.00 0.00 71 1010.4
20260505053036 15 0.0 8.0 0.00 0.00 0.00 71 1010.4
20260505052516 15 0.0 3.2 0.00 0.00 0.00 71 1010.5
20260505052016 15 0.0 3.2 0.00 0.00 0.00 71 1010.5
20260505051516 15 0.0 1.6 0.00 0.00 0.00 71 1010.6
20260505051016 15 0.0 1.6 0.00 0.00 0.00 71 1010.6
20260505050516 15 0.0 4.8 0.00 0.00 0.00 71 1010.6
20260505041516 15 0.0 1.6 0.00 0.00 0.00 70 1010.9
20260505041016 15 0.0 4.8 0.00 0.00 0.00 70 1010.9
20260505040517 15 0.0 3.2 0.00 0.00 0.00 70 1011.0
20260505040037 15 158 1.6 3.2 0.00 0.00 0.00 70 1011.0